Location: Banksville Park
(38.5557°N, 75.1182°W)
Time: 23:27:23
(UTC+00:00)

Lacrosse 5 - Pass Details

Date: 19 September 2020
Orbit: 716 x 723 km, 57.0° (Epoch: 28 October)

Event Time Altitude Azimuth Distance (km) Brightness Sun altitude
Exits shadow 09:44:30 - 301° (WNW) 2,268 4.0 -12.7°
Reaches altitude 10° 09:44:49 10° 304° (WNW) 2,201 4.0 -12.7°
Maximum altitude 09:47:37 15° 338° (NNW) 1,900 3.9 -12.1°
Drops below altitude 10° 09:50:27 10° 12° (NNE) 2,207 4.7 -11.6°
Sets 09:53:55 0° 36° (NE) 3,131 5.9 -10.9°
